DLH4XA LYTV-EDDF

Flight info

Callsign DLH4XA
Flight time N/A
Altitude 38000
Route NIK DCT GACMO DCT EDALA DCT KOMAR DCT PODET DCT SETAL DCT SIMBA DCT AKINI T161 DEBHI DEBHI1A
Aircraft A319/M-SDE3FGHIRWY/LB1

Departure

Time 2026-05-05 18:01
Airport Tivat Airport (LYTV)

Arrival

Time N/A
Airport Frankfurt Main Airport (EDDF)
Time Latitude Longitude Altitude Speed Heading
2026-05-05 17:26 42.41250 18.71652 12 ft 0 kts 173°
2026-05-05 17:55 42.41248 18.71652 6 ft 2 kts 178°
2026-05-05 17:55 42.41227 18.71638 7 ft 5 kts 208°
2026-05-05 17:56 42.41194 18.71655 7 ft 9 kts 139°
2026-05-05 17:56 42.41134 18.71727 6 ft 14 kts 139°
2026-05-05 17:56 42.41049 18.71826 6 ft 15 kts 139°
2026-05-05 17:56 42.40968 18.71817 7 ft 13 kts 220°
2026-05-05 17:57 42.40893 18.71827 7 ft 14 kts 137°
2026-05-05 17:57 42.40806 18.71933 5 ft 20 kts 139°
2026-05-05 17:57 42.40690 18.72067 5 ft 25 kts 139°
2026-05-05 17:57 42.40546 18.72236 5 ft 30 kts 139°
2026-05-05 17:58 42.40379 18.72434 6 ft 33 kts 139°
2026-05-05 17:58 42.40210 18.72634 7 ft 32 kts 139°
2026-05-05 17:58 42.40043 18.72832 5 ft 32 kts 139°
2026-05-05 17:58 42.39879 18.73026 4 ft 30 kts 139°
2026-05-05 17:59 42.39741 18.73189 6 ft 25 kts 139°
2026-05-05 17:59 42.39647 18.73275 5 ft 12 kts 165°
2026-05-05 17:59 42.39646 18.73300 6 ft 7 kts 320°
2026-05-05 17:59 42.39659 18.73285 5 ft 0 kts 318°
2026-05-05 18:00 42.39661 18.73282 2 ft 2 kts 318°
2026-05-05 18:00 42.39770 18.73153 2 ft 58 kts 319°
2026-05-05 18:00 42.40513 18.72277 3 ft 149 kts 319°
2026-05-05 18:01 42.41365 18.71282 400 ft 165 kts 318°
2026-05-05 18:01 42.41925 18.70561 901 ft 165 kts 308°
2026-05-05 18:01 42.42205 18.68531 1595 ft 183 kts 252°
2026-05-05 18:01 42.41485 18.67053 1941 ft 202 kts 217°
2026-05-05 18:02 42.40693 18.66251 2230 ft 218 kts 214°
2026-05-05 18:02 42.39448 18.65020 3096 ft 224 kts 215°
2026-05-05 18:02 42.38199 18.63781 4099 ft 225 kts 214°
2026-05-05 18:02 42.36931 18.62520 5093 ft 227 kts 215°
2026-05-05 18:03 42.35657 18.61246 6046 ft 229 kts 215°
2026-05-05 18:03 42.34375 18.59959 6997 ft 230 kts 215°
2026-05-05 18:03 42.32964 18.58923 7884 ft 232 kts 198°
2026-05-05 18:03 42.31364 18.58569 8786 ft 236 kts 180°
2026-05-05 18:04 42.29714 18.58810 9711 ft 240 kts 175°
2026-05-05 18:04 42.28038 18.59099 10505 ft 246 kts 175°
2026-05-05 18:04 42.26367 18.59745 11228 ft 258 kts 153°
2026-05-05 18:04 42.25027 18.61397 11944 ft 270 kts 124°
2026-05-05 18:05 42.24389 18.63846 12514 ft 287 kts 93°
2026-05-05 18:05 42.24719 18.66514 13201 ft 294 kts 69°
2026-05-05 18:05 42.25399 18.69142 13990 ft 298 kts 68°
2026-05-05 18:05 42.26080 18.71763 14696 ft 302 kts 68°
2026-05-05 18:06 42.26778 18.74457 15423 ft 305 kts 68°
2026-05-05 18:06 42.27367 18.76227 15914 ft 306 kts 57°
2026-05-05 18:06 42.29180 18.79101 16816 ft 306 kts 34°
2026-05-05 18:06 42.31050 18.80583 17096 ft 319 kts 16°
2026-05-05 18:07 42.33225 18.81287 17628 ft 324 kts
2026-05-05 18:07 42.35460 18.81810 18322 ft 329 kts
2026-05-05 18:07 42.37726 18.82367 18980 ft 332 kts
2026-05-05 18:07 42.40029 18.82945 19328 ft 346 kts
2026-05-05 18:08 42.42456 18.83556 19456 ft 365 kts
2026-05-05 18:08 42.45018 18.84202 19612 ft 382 kts
2026-05-05 18:08 42.47659 18.84867 20043 ft 390 kts
2026-05-05 18:08 42.50342 18.85542 20584 ft 394 kts
2026-05-05 18:09 42.53063 18.86227 21159 ft 399 kts
2026-05-05 18:09 42.55808 18.86920 21713 ft 403 kts
2026-05-05 18:09 42.58580 18.87621 22264 ft 407 kts
2026-05-05 18:09 42.61375 18.88327 22801 ft 411 kts
2026-05-05 18:10 42.64194 18.89037 23311 ft 415 kts
2026-05-05 18:10 42.67056 18.89753 23802 ft 419 kts
2026-05-05 18:10 42.69925 18.90470 24243 ft 422 kts
2026-05-05 18:10 42.72832 18.91032 24693 ft 422 kts
2026-05-05 18:11 42.75758 18.90905 25140 ft 420 kts 349°
2026-05-05 18:11 42.78570 18.90068 25575 ft 418 kts 339°
2026-05-05 18:11 42.81242 18.88550 26028 ft 416 kts 329°
2026-05-05 18:11 42.83697 18.86403 26492 ft 414 kts 321°
2026-05-05 18:12 42.86000 18.84106 26933 ft 417 kts 321°
2026-05-05 18:12 42.88357 18.81760 27358 ft 419 kts 321°
2026-05-05 18:12 42.90710 18.79421 27789 ft 421 kts 321°
2026-05-05 18:12 42.93078 18.77065 28231 ft 422 kts 321°
2026-05-05 18:13 42.95454 18.74701 28745 ft 421 kts 321°
2026-05-05 18:13 42.97817 18.72341 29188 ft 422 kts 321°
2026-05-05 18:13 43.00193 18.69963 29597 ft 423 kts 321°
2026-05-05 18:13 43.02572 18.67578 30002 ft 425 kts 321°
2026-05-05 18:14 43.04964 18.65179 30359 ft 426 kts 321°
2026-05-05 18:14 43.07362 18.62772 30680 ft 428 kts 321°
2026-05-05 18:14 43.09758 18.60367 30946 ft 431 kts 321°
2026-05-05 18:14 43.12182 18.57931 31219 ft 433 kts 321°
2026-05-05 18:15 43.14605 18.55490 31633 ft 432 kts 321°
2026-05-05 18:15 43.17035 18.53082 32101 ft 429 kts 321°
2026-05-05 18:15 43.19467 18.50730 32601 ft 427 kts 322°
2026-05-05 18:15 43.21898 18.48405 33094 ft 424 kts 322°
2026-05-05 18:16 43.24308 18.46104 33590 ft 421 kts 322°
2026-05-05 18:16 43.26677 18.43835 34081 ft 419 kts 322°
2026-05-05 18:16 43.29060 18.41544 34469 ft 418 kts 322°
2026-05-05 18:16 43.31436 18.39245 34780 ft 419 kts 322°
2026-05-05 18:17 43.33820 18.36932 35114 ft 418 kts 321°
2026-05-05 18:17 43.36195 18.34620 35448 ft 418 kts 321°
2026-05-05 18:17 43.38571 18.32305 35783 ft 417 kts 321°
2026-05-05 18:17 43.40940 18.29989 36107 ft 417 kts 321°
2026-05-05 18:18 43.43299 18.27679 36434 ft 416 kts 321°
2026-05-05 18:18 43.45660 18.25368 36743 ft 416 kts 321°
2026-05-05 18:18 43.48011 18.23073 37070 ft 415 kts 321°
2026-05-05 18:18 43.50375 18.20768 37381 ft 415 kts 321°
2026-05-05 18:19 43.52724 18.18475 37689 ft 414 kts 321°
2026-05-05 18:19 43.55073 18.16173 37965 ft 414 kts 321°
2026-05-05 18:19 43.57419 18.13870 38081 ft 414 kts 321°
2026-05-05 18:20 43.62106 18.09267 38084 ft 413 kts 323°
2026-05-05 18:20 43.66805 18.04652 38085 ft 413 kts 321°